Regional Weather Roundup
Issued by NWS

Home | Current Version | Previous Version | Graphics & Text | Print | Product List | Glossary On
Versions: 1 2 3 4 5 6 7 8 9 10 11 12 13 14 15 16 17 18 19 20 21 22 23 24 25 26 27 28 29 30 31 32 33 34 35 36 37 38 39 40 41 42 43 44 45 46 47 48 49 50
000
ASUS43 KTOP 290559
RWRKS

WEATHER ROUNDUP FOR KANSAS
NATIONAL WEATHER SERVICE GOODLAND KS
1200 AM CST THU JAN 29 2015

NOTE:  "FAIR" INDICATES FEW OR NO CLOUDS BELOW 12,000 FEET WITH NO
SIGNIFICANT WEATHER AND/OR OBSTRUCTIONS TO VISIBILITY.

KSZ001>006-013>018-027>032-041>047-290700-
NORTHWEST KANSAS

CITY           SKY/WX    TMP DP  RH WIND       PRES   REMARKS
GOODLAND       CLEAR     39  34  82 NW15      30.23R WCI  31
6HR MIN TEMP:  38; 6HR MAX TEMP:  54;

HAYS           CLEAR     48  28  46 NW18      30.12R
HILL CITY      CLEAR     47  33  58 NW15      30.16R
6HR MIN TEMP:  47; 6HR MAX TEMP:  63;

RUSSELL        CLEAR     50  32  50 NW21      30.07R
6HR MIN TEMP:  50; 6HR MAX TEMP:  65;

$$

KSZ061>065-074>080-084>089-290700-
SOUTHWEST KANSAS

CITY           SKY/WX    TMP DP  RH WIND       PRES   REMARKS
DODGE CITY     CLEAR     49  33  54 NW15      30.16R
6HR MIN TEMP:  49; 6HR MAX TEMP:  63;

ELKHART          N/A     43  29  58 NW7         N/A
GARDEN CITY    CLEAR     46  34  62 N24       30.16R
6HR MIN TEMP:  46; 6HR MAX TEMP:  61;

LIBERAL        CLEAR     43  28  56 NW12      30.21R
$$

KSZ066>073-081>083-090>101-290700-
SOUTHEAST KANSAS

CITY           SKY/WX    TMP DP  RH WIND       PRES   REMARKS
CHANUTE        PTCLDY    60  34  37 NW15      29.92R
6HR MIN TEMP:  57; 6HR MAX TEMP:  66;

COFFEYVILLE    CLOUDY    60  37  42 NW13      29.92R
6HR MIN TEMP:  58; 6HR MAX TEMP:  69;

HUTCHINSON     CLEAR     54  29  38 NW10      30.05R
6HR MIN TEMP:  49; 6HR MAX TEMP:  64;

MEDICINE LODGE   N/A     54  32  43 N13       30.08R
NEWTON         CLEAR     54  28  37 NW15      30.05R
PARSONS        MOCLDY    62  36  37 NW16      29.93R
6HR MIN TEMP:  57; 6HR MAX TEMP:  68;

WICHITA INTL   PTCLDY    58  29  33 NW20      30.03R
6HR MIN TEMP:  54; 6HR MAX TEMP:  62;

WICHITA JABRA  CLEAR     54  31  41 NW15      30.02R
6HR MIN TEMP:  54; 6HR MAX TEMP:  62;

WINFIELD       PTCLDY    53  32  44 NW14      30.02R
6HR MIN TEMP:  52; 6HR MAX TEMP:  61;

$$

KSZ007>012-019>026-033>040-048>060-102>105-290700-
NORTHEAST KANSAS

CITY           SKY/WX    TMP DP  RH WIND       PRES   REMARKS
CONCORDIA      CLEAR     45  30  55 W13       30.03R
6HR MIN TEMP:  45; 6HR MAX TEMP:  62;

EMPORIA        CLEAR     53  32  44 NW12      29.95R
6HR MIN TEMP:  53; 6HR MAX TEMP:  61;

LAWRENCE       CLEAR     54  35  48 NW24G33   29.90R
6HR MIN TEMP:  47; 6HR MAX TEMP:  68;

MANHATTAN      CLEAR     55  32  41 N10G17    29.97R
6HR MIN TEMP:  50; 6HR MAX TEMP:  60;

OLATHE IND     CLEAR     54  36  50 NW13      29.88R
6HR MIN TEMP:  52; 6HR MAX TEMP:  65;

OLATHE EXE     CLEAR     55  36  48 NW16G24   29.85R
6HR MIN TEMP:  55; 6HR MAX TEMP:  67;

SALINA         CLEAR     49  30  48 NW10      30.02R
6HR MIN TEMP:  48; 6HR MAX TEMP:  63;

TOPEKA BILLARD CLEAR     53  34  48 NW15      29.92R
6HR MIN TEMP:  50; 6HR MAX TEMP:  66;

TOPEKA FORBES  CLEAR     55  34  45 NW17G26   29.92R
6HR MIN TEMP:  50; 6HR MAX TEMP:  64;

$$



USA.gov is the U.S. government's official web portal to all federal, state and local government web resources and services.